GW3912 Weather Reports


time (UTC)temp
C
wind
direction
speed
KPH
gust
KPH
rain 1hr
cm
rain 24hr
cm
rain mn
cm
humidity
%
barometer
mb
20260506160011 26 131 1.6 6.4 0.00 0.00 0.00 61 1017.4
20260506155507 26 85 0.0 6.4 0.00 0.00 0.00 60 1017.3
20260506155004 26 206 1.6 6.4 0.00 0.00 0.00 60 1017.4
20260506154508 26 241 0.0 6.4 0.00 0.00 0.00 60 1017.3
20260506154003 26 261 0.0 6.4 0.00 0.00 0.00 60 1017.4
20260506153503 26 266 0.0 6.4 0.00 0.00 0.00 60 1017.4
20260506153003 26 161 0.0 6.4 0.00 0.00 0.00 59 1017.4
20260506152503 26 182 1.6 8.0 0.00 0.00 0.00 59 1017.4
20260506152004 26 123 1.6 8.0 0.00 0.00 0.00 57 1017.4
20260506151504 26 140 1.6 6.4 0.00 0.00 0.00 57 1017.5
20260506151004 26 205 0.0 4.8 0.00 0.00 0.00 57 1017.4
20260506150506 27 184 1.6 11.3 0.00 0.00 0.00 56 1017.3
20260506150005 27 153 3.2 11.3 0.00 0.00 0.00 54 1017.4
20260506145506 27 156 0.0 6.4 0.00 0.00 0.00 55 1017.3
20260506145005 26 107 1.6 6.4 0.00 0.00 0.00 53 1017.3
20260506144508 26 154 1.6 16.1 0.00 0.00 0.00 54 1017.2
20260506144004 26 82 3.2 16.1 0.00 0.00 0.00 52 1017.2
20260506143504 26 62 0.0 11.3 0.00 0.00 0.00 54 1017.1
20260506143007 26 182 0.0 8.0 0.00 0.00 0.00 56 1017.0
20260506142504 26 244 0.0 6.4 0.00 0.00 0.00 56 1017.0
20260506142002 26 92 1.6 14.5 0.00 0.00 0.00 56 1017.0
20260506141504 26 182 3.2 14.5 0.00 0.00 0.00 56 1017.0
20260506141004 26 194 0.0 6.4 0.00 0.00 0.00 58 1017.1
20260506140504 26 34 0.0 6.4 0.00 0.00 0.00 57 1017.1
20260506140006 26 150 0.0 9.7 0.00 0.00 0.00 57 1017.1
20260506135505 25 210 1.6 9.7 0.00 0.00 0.00 58 1017.1
20260506135008 25 142 1.6 11.3 0.00 0.00 0.00 56 1017.0
20260506134510 25 36 0.0 11.3 0.00 0.00 0.00 59 1016.8
20260506134005 25 218 0.0 6.4 0.00 0.00 0.00 60 1016.9
20260506133504 25 117 1.6 6.4 0.00 0.00 0.00 60 1016.8
20260506133013 25 183 0.0 4.8 0.00 0.00 0.00 60 1016.8
20260506132504 25 227 0.0 4.8 0.00 0.00 0.00 63 1016.8
20260506132013 24 175 0.0 3.2 0.00 0.00 0.00 64 1016.9
20260506131513 24 192 0.0 3.2 0.00 0.00 0.00 66 1016.8
20260506131004 23 190 0.0 6.4 0.00 0.00 0.00 68 1016.7
20260506130504 23 240 1.6 6.4 0.00 0.00 0.00 68 1016.7
20260506130010 23 19 0.0 4.8 0.00 0.00 0.00 71 1016.7
20260506125503 22 140 1.6 4.8 0.00 0.00 0.00 71 1016.6
20260506125004 22 153 0.0 3.2 0.00 0.00 0.00 75 1016.5
20260506124510 21 153 0.0 3.2 0.00 0.00 0.00 76 1016.6
20260506124004 21 82 0.0 3.2 0.00 0.00 0.00 79 1016.5
20260506123505 20 210 0.0 3.2 0.00 0.00 0.00 81 1016.5
20260506123014 20 201 0.0 4.8 0.00 0.00 0.00 82 1016.5
20260506122505 20 210 0.0 4.8 0.00 0.00 0.00 84 1016.6
20260506122008 19 217 0.0 3.2 0.00 0.00 0.00 86 1016.6
20260506121515 19 182 0.0 3.2 0.00 0.00 0.00 87 1016.7
20260506121005 18 279 0.0 3.2 0.00 0.00 0.00 89 1016.6
20260506120505 18 187 0.0 1.6 0.00 0.00 0.00 91 1016.6
20260506120017 18 111 0.0 1.6 0.00 0.00 0.00 92 1016.5
20260506115504 18 148 0.0 0.0 0.00 0.00 0.00 92 1016.5
20260506115008 17 144 0.0 0.0 0.00 0.00 0.00 92 1016.5
20260506114513 17 144 0.0 0.0 0.00 0.00 0.00 92 1016.4
20260506114005 16 144 0.0 0.0 0.00 0.00 0.00 91 1016.3
20260506113504 16 144 0.0 0.0 0.00 0.00 0.00 91 1016.2
20260506113011 16 144 0.0 0.0 0.00 0.00 0.00 91 1016.3
20260506112508 16 144 0.0 0.0 0.00 0.00 0.00 90 1016.1
20260506112008 16 144 0.0 0.0 0.00 0.00 0.00 90 1016.0
20260506111515 16 144 0.0 0.0 0.00 0.00 0.00 90 1016.0
20260506111007 16 144 0.0 0.0 0.00 0.00 0.00 90 1016.1
20260506110507 16 144 0.0 0.0 0.00 0.00 0.00 90 1016.1
20260506110021 15 144 0.0 0.0 0.00 0.00 0.00 90 1016.0
20260506105507 15 144 0.0 0.0 0.00 0.00 0.00 89 1016.0
20260506105006 15 144 0.0 0.0 0.00 0.00 0.00 89 1016.0
20260506104516 15 144 0.0 0.0 0.00 0.00 0.00 89 1016.0
20260506104007 15 144 0.0 0.0 0.00 0.00 0.00 89 1016.0
20260506103504 15 144 0.0 0.0 0.00 0.00 0.00 89 1015.8
20260506103023 15 144 0.0 0.0 0.00 0.00 0.00 88 1015.8
20260506102507 15 144 0.0 0.0 0.00 0.00 0.00 88 1015.8
20260506102007 15 144 0.0 0.0 0.00 0.00 0.00 88 1015.8
20260506101515 15 144 0.0 0.0 0.00 0.00 0.00 88 1015.8
20260506101008 15 144 0.0 0.0 0.00 0.00 0.00 88 1015.8
20260506100507 15 144 0.0 0.0 0.00 0.00 0.00 89 1015.9
20260506100022 15 144 0.0 0.0 0.00 0.00 0.00 88 1015.8
20260506095507 15 144 0.0 0.0 0.00 0.00 0.00 88 1015.8
20260506095008 15 144 0.0 0.0 0.00 0.00 0.00 88 1015.6
20260506094530 15 144 0.0 0.0 0.00 0.00 0.00 88 1015.7
20260506094009 15 144 0.0 0.0 0.00 0.00 0.00 88 1015.7
20260506093508 15 144 0.0 0.0 0.00 0.00 0.00 88 1015.7
20260506093039 16 144 0.0 0.0 0.00 0.00 0.00 88 1015.8
20260506092504 16 144 0.0 0.0 0.00 0.00 0.00 88 1015.8
20260506092004 16 144 0.0 0.0 0.00 0.00 0.00 88 1015.8
20260506091512 16 144 0.0 0.0 0.00 0.00 0.00 87 1015.8
20260506091005 16 144 0.0 0.0 0.00 0.00 0.00 88 1015.8
20260506090505 16 144 0.0 0.0 0.00 0.00 0.00 87 1015.9
20260506090017 16 144 0.0 0.0 0.00 0.00 0.00 87 1015.7
20260506085505 16 144 0.0 0.0 0.00 0.00 0.00 87 1015.8
20260506085006 16 144 0.0 0.0 0.00 0.00 0.00 87 1015.8
20260506084525 16 144 0.0 0.0 0.00 0.00 0.00 87 1016.0
20260506084009 16 144 0.0 0.0 0.00 0.00 0.00 87 1016.0
20260506083508 16 144 0.0 0.0 0.00 0.00 0.00 87 1016.0
20260506083023 16 144 0.0 0.0 0.00 0.00 0.00 87 1016.0
20260506082513 16 144 0.0 0.0 0.00 0.00 0.00 87 1015.9
20260506082007 16 144 0.0 0.0 0.00 0.00 0.00 87 1016.0
20260506081522 16 144 0.0 0.0 0.00 0.00 0.00 87 1015.9
20260506081005 16 144 0.0 0.0 0.00 0.00 0.00 86 1015.8
20260506080505 16 144 0.0 0.0 0.00 0.00 0.00 86 1015.8
20260506073503 16 144 0.0 0.0 0.00 0.00 0.00 86 1015.6
20260506073004 16 144 0.0 0.0 0.00 0.00 0.00 86 1015.7
20260506072504 16 144 0.0 0.0 0.00 0.00 0.00 86 1015.7
20260506072004 16 144 0.0 0.0 0.00 0.00 0.00 86 1015.7
20260506071507 16 144 0.0 0.0 0.00 0.00 0.00 86 1015.7
20260506071005 16 144 0.0 0.0 0.00 0.00 0.00 86 1015.6
20260506070506 16 144 0.0 0.0 0.00 0.00 0.00 86 1015.7
20260506062505 16 144 0.0 0.0 0.00 0.00 0.00 84 1016.1
20260506062004 16 144 0.0 0.0 0.00 0.00 0.00 85 1016.0
20260506061504 16 144 0.0 0.0 0.00 0.00 0.00 85 1015.9
20260506061007 16 144 0.0 0.0 0.00 0.00 0.00 85 1015.9
20260506060504 16 144 0.0 0.0 0.00 0.00 0.00 85 1016.0
20260506051003 16 144 0.0 0.0 0.00 0.00 0.00 81 1016.5
20260506050504 16 144 0.0 0.0 0.00 0.00 0.00 81 1016.5
20260506045004 16 144 0.0 0.0 0.00 0.00 0.00 80 1016.7
20260506044518 16 144 0.0 0.0 0.00 0.00 0.00 79 1016.7
20260506044006 16 144 0.0 0.0 0.00 0.00 0.00 79 1016.8
20260506043510 17 144 0.0 0.0 0.00 0.00 0.00 79 1017.0
20260506043018 17 144 0.0 0.0 0.00 0.00 0.00 79 1016.8
20260506042508 17 144 0.0 0.0 0.00 0.00 0.00 79 1016.9
20260506042008 17 144 0.0 0.0 0.00 0.00 0.00 79 1017.0
20260506041524 17 144 0.0 0.0 0.00 0.00 0.00 79 1017.0
20260506041008 17 144 0.0 0.0 0.00 0.00 0.00 78 1016.8
20260506040503 17 144 0.0 0.0 0.00 0.00 0.00 78 1016.8
20260506040006 17 144 0.0 0.0 0.00 0.00 0.00 78 1016.9
20260506035504 17 144 0.0 0.0 0.00 0.00 0.00 78 1016.8
20260506035004 17 144 0.0 0.0 0.00 0.00 0.00 77 1016.8
20260506034510 17 144 0.0 0.0 0.00 0.00 0.00 77 1016.8
20260506034006 17 144 0.0 0.0 0.00 0.00 0.00 77 1016.7
20260506033503 17 144 0.0 0.0 0.00 0.00 0.00 77 1016.7
20260506033017 17 144 0.0 0.0 0.00 0.00 0.00 77 1016.6
20260506032504 17 144 0.0 0.0 0.00 0.00 0.00 77 1016.7
20260506032009 17 144 0.0 0.0 0.00 0.00 0.00 76 1016.7
20260506031521 17 144 0.0 0.0 0.00 0.00 0.00 76 1016.7
20260506031008 17 144 0.0 0.0 0.00 0.00 0.00 76 1016.7
20260506030510 17 144 0.0 0.0 0.00 0.00 0.00 76 1016.7
20260506030022 17 144 0.0 0.0 0.00 0.00 0.00 75 1016.9
20260506025513 17 144 0.0 0.0 0.00 0.00 0.00 75 1016.7
20260506025004 17 144 0.0 0.0 0.00 0.00 0.00 75 1016.8
20260506024508 17 144 0.0 0.0 0.00 0.00 0.00 75 1016.9
20260506024006 17 144 0.0 0.0 0.00 0.00 0.00 74 1016.9
20260506023508 17 144 0.0 0.0 0.00 0.00 0.00 74 1017.1
20260506023011 17 144 0.0 0.0 0.00 0.00 0.00 74 1017.1
20260506022508 17 144 0.0 0.0 0.00 0.00 0.00 74 1017.1
20260506022004 17 144 0.0 0.0 0.00 0.00 0.00 73 1017.1
20260506021518 17 144 0.0 0.0 0.00 0.00 0.00 73 1017.1
20260506021008 17 144 0.0 0.0 0.00 0.00 0.00 73 1017.0
20260506020508 17 144 0.0 0.0 0.00 0.00 0.00 73 1017.0
20260506020022 17 144 0.0 0.0 0.00 0.00 0.00 73 1017.1
20260506015508 17 144 0.0 0.0 0.00 0.00 0.00 73 1016.9
20260506015009 17 144 0.0 0.0 0.00 0.00 0.00 73 1016.8
20260506014526 17 144 0.0 0.0 0.00 0.00 0.00 73 1016.7
20260506014010 17 144 0.0 0.0 0.00 0.00 0.00 73 1016.5
20260506013504 17 144 0.0 1.6 0.00 0.00 0.00 73 1016.5
20260506013011 18 144 0.0 1.6 0.00 0.00 0.00 73 1016.7
20260506012504 18 144 0.0 0.0 0.00 0.00 0.00 73 1016.6
20260506012006 18 144 0.0 0.0 0.00 0.00 0.00 72 1016.6
20260506011517 18 144 0.0 0.0 0.00 0.00 0.00 71 1016.6
20260506011004 18 144 0.0 1.6 0.00 0.00 0.00 71 1016.9
20260506010504 18 144 0.0 1.6 0.00 0.00 0.00 71 1017.0
20260506010019 18 144 0.0 1.6 0.00 0.00 0.00 71 1016.7
20260506005509 19 144 0.0 0.0 0.00 0.00 0.00 70 1016.4
20260506005007 19 144 0.0 0.0 0.00 0.00 0.00 70 1016.3
20260506004524 19 144 0.0 0.0 0.00 0.00 0.00 69 1016.3
20260506004010 20 144 0.0 0.0 0.00 0.00 0.00 69 1016.5
20260506003509 20 144 0.0 0.0 0.00 0.00 0.00 68 1016.6
20260506003026 20 144 0.0 0.0 0.00 0.00 0.00 68 1016.5
20260506002509 20 144 0.0 0.0 0.00 0.00 0.00 67 1016.6
20260506002012 20 144 0.0 1.6 0.00 0.00 0.00 67 1016.6
20260506001515 20 144 0.0 1.6 0.00 0.00 0.00 66 1016.8
20260506001004 20 144 0.0 3.2 0.00 0.00 0.00 66 1016.7
20260506000504 20 142 0.0 3.2 0.00 0.00 0.00 66 1016.6
20260506000015 20 163 0.0 1.6 0.00 0.00 0.00 66 1016.6
20260505235506 21 163 0.0 1.6 0.00 0.00 0.00 65 1016.6
20260505235009 21 161 0.0 3.2 0.00 0.00 0.00 64 1016.6
20260505234546 21 145 0.0 3.2 0.00 0.00 0.00 64 1016.5
20260505234007 21 145 0.0 3.2 0.00 0.00 0.00 64 1016.4
20260505233510 21 140 0.0 3.2 0.00 0.00 0.00 62 1016.4
20260505233022 21 155 0.0 3.2 0.00 0.00 0.00 60 1016.4
20260505232511 21 143 0.0 1.6 0.00 0.00 0.00 62 1016.3
20260505232011 21 144 0.0 3.2 0.00 0.00 0.00 61 1016.3
20260505231524 21 144 0.0 3.2 0.00 0.00 0.00 61 1016.4
20260505231008 21 146 0.0 3.2 0.00 0.00 0.00 61 1016.5
20260505230513 22 157 0.0 3.2 0.00 0.00 0.00 60 1016.4
20260505230014 22 160 0.0 3.2 0.00 0.00 0.00 60 1016.5
20260505225507 22 155 0.0 4.8 0.00 0.00 0.00 60 1016.6
20260505225007 22 144 0.0 4.8 0.00 0.00 0.00 60 1016.6
20260505224527 22 194 0.0 3.2 0.00 0.00 0.00 60 1016.5
20260505224007 22 229 0.0 1.6 0.00 0.00 0.00 60 1016.5
20260505223508 22 165 0.0 3.2 0.00 0.00 0.00 58 1016.7
20260505223022 22 211 0.0 3.2 0.00 0.00 0.00 58 1016.7
20260505222510 22 210 0.0 3.2 0.00 0.00 0.00 58 1016.7
20260505222010 22 111 0.0 3.2 0.00 0.00 0.00 58 1016.7
20260505221528 22 181 0.0 3.2 0.00 0.00 0.00 58 1016.7
20260505221009 23 218 0.0 3.2 0.00 0.00 0.00 58 1016.7
20260505220510 23 109 0.0 3.2 0.00 0.00 0.00 58 1016.8
20260505220027 23 139 0.0 4.8 0.00 0.00 0.00 58 1016.8
20260505215508 23 186 0.0 6.4 0.00 0.00 0.00 58 1016.9
20260505215007 23 142 0.0 6.4 0.00 0.00 0.00 59 1016.9
20260505214520 23 136 0.0 4.8 0.00 0.00 0.00 59 1016.8
20260505214007 23 171 0.0 4.8 0.00 0.00 0.00 59 1017.0
20260505213507 23 190 0.0 4.8 0.00 0.00 0.00 59 1017.2
20260505213021 23 219 0.0 4.8 0.00 0.00 0.00 57 1017.2
20260505212512 24 290 0.0 6.4 0.00 0.00 0.00 57 1017.1
20260505212012 24 202 1.6 6.4 0.00 0.00 0.00 56 1017.1
20260505211524 25 226 0.0 3.2 0.00 0.00 0.00 56 1017.0
20260505211007 25 194 0.0 3.2 0.00 0.00 0.00 55 1017.0
20260505210505 25 188 0.0 1.6 0.00 0.00 0.00 56 1017.0
20260505210011 25 156 0.0 6.4 0.00 0.00 0.00 56 1016.9
20260505205507 25 178 0.0 6.4 0.00 0.00 0.00 55 1016.8
20260505205006 25 212 0.0 4.8 0.00 0.00 0.00 56 1016.9
20260505204523 25 167 0.0 4.8 0.00 0.00 0.00 55 1016.9
20260505204007 25 132 0.0 6.4 0.00 0.00 0.00 55 1016.9
20260505203510 25 153 0.0 6.4 0.00 0.00 0.00 55 1016.9
20260505203017 25 236 0.0 4.8 0.00 0.00 0.00 54 1016.8
20260505202507 25 136 0.0 4.8 0.00 0.00 0.00 54 1017.0
20260505202009 25 157 0.0 6.4 0.00 0.00 0.00 54 1017.0
20260505201505 25 213 0.0 6.4 0.00 0.00 0.00 53 1017.0
20260505201004 25 182 1.6 6.4 0.00 0.00 0.00 54 1017.0
20260505200503 25 195 0.0 6.4 0.00 0.00 0.00 53 1017.2
20260505200012 25 195 0.0 4.8 0.00 0.00 0.00 53 1017.2
20260505195505 26 129 0.0 4.8 0.00 0.00 0.00 51 1017.3
20260505195005 26 167 0.0 3.2 0.00 0.00 0.00 52 1017.4
20260505194510 26 201 0.0 3.2 0.00 0.00 0.00 52 1017.6
20260505194008 26 103 0.0 6.4 0.00 0.00 0.00 52 1017.6
20260505193507 26 76 0.0 6.4 0.00 0.00 0.00 50 1017.7
20260505193015 26 208 0.0 3.2 0.00 0.00 0.00 51 1018.0
20260505192512 26 104 0.0 3.2 0.00 0.00 0.00 52 1017.9
20260505192008 26 127 0.0 4.8 0.00 0.00 0.00 52 1018.1
20260505191521 26 163 0.0 6.4 0.00 0.00 0.00 51 1018.1
20260505191011 26 190 1.6 6.4 0.00 0.00 0.00 52 1018.1
20260505190508 26 180 1.6 6.4 0.00 0.00 0.00 51 1018.2
20260505190005 26 202 1.6 6.4 0.00 0.00 0.00 52 1018.3
20260505185504 26 198 0.0 6.4 0.00 0.00 0.00 52 1018.2
20260505185005 26 195 1.6 12.9 0.00 0.00 0.00 51 1018.2
20260505184517 26 98 1.6 12.9 0.00 0.00 0.00 50 1018.2
20260505184007 26 178 0.0 4.8 0.00 0.00 0.00 48 1018.1
20260505183507 26 188 0.0 4.8 0.00 0.00 0.00 50 1018.1
20260505183040 26 211 0.0 4.8 0.00 0.00 0.00 51 1018.0
20260505182507 26 121 0.0 4.8 0.00 0.00 0.00 50 1017.8
20260505182014 26 123 0.0 4.8 0.00 0.00 0.00 50 1017.8
20260505181518 26 259 0.0 9.7 0.00 0.00 0.00 49 1017.9
20260505181012 26 113 1.6 9.7 0.00 0.00 0.00 52 1018.0
20260505180509 26 98 1.6 4.8 0.00 0.00 0.00 52 1017.9
20260505180022 26 126 0.0 4.8 0.00 0.00 0.00 54 1017.9
20260505175512 26 207 0.0 4.8 0.00 0.00 0.00 51 1017.9
20260505175010 26 146 0.0 6.4 0.00 0.00 0.00 54 1017.9
20260505174505 26 262 1.6 6.4 0.00 0.00 0.00 51 1017.9
20260505174007 26 176 1.6 6.4 0.00 0.00 0.00 52 1017.6
20260505173504 26 282 1.6 6.4 0.00 0.00 0.00 52 1017.7
20260505173020 26 237 0.0 4.8 0.00 0.00 0.00 51 1017.9
20260505172505 26 246 0.0 4.8 0.00 0.00 0.00 53 1018.0
20260505172007 25 202 0.0 6.4 0.00 0.00 0.00 54 1018.3
20260505171514 25 117 0.0 6.4 0.00 0.00 0.00 53 1018.4
20260505171008 25 240 3.2 8.0 0.00 0.00 0.00 51 1018.3
20260505170506 25 188 0.0 8.0 0.00 0.00 0.00 54 1018.4
20260505170020 25 97 0.0 9.7 0.00 0.00 0.00 54 1018.5
20260505165508 25 170 0.0 9.7 0.00 0.00 0.00 54 1018.5
20260505165008 25 242 0.0 8.0 0.00 0.00 0.00 55 1018.6
20260505164524 25 290 0.0 4.8 0.00 0.00 0.00 54 1018.6
20260505164006 26 192 1.6 4.8 0.00 0.00 0.00 53 1018.6
20260505163511 26 219 0.0 6.4 0.00 0.00 0.00 55 1018.7
20260505163008 26 162 0.0 6.4 0.00 0.00 0.00 53 1018.6
20260505162504 26 186 0.0 4.8 0.00 0.00 0.00 54 1018.7
20260505162005 26 186 0.0 6.4 0.00 0.00 0.00 55 1018.7
20260505161514 25 130 0.0 6.4 0.00 0.00 0.00 55 1018.7
20260505161004 25 188 1.6 6.4 0.00 0.00 0.00 55 1018.8
20260505160508 26 194 0.0 3.2 0.00 0.00 0.00 55 1018.9